Regional Weather Roundup
Issued by NWS

Home | Current Version | Previous Version | Graphics & Text | Print | Product List | Glossary On
Versions: 1 2 3 4 5 6 7 8 9 10 11 12 13 14 15 16 17 18 19 20 21 22 23 24 25 26 27 28 29 30 31 32 33 34 35 36 37 38 39 40 41 42 43 44 45 46 47 48 49 50
000
ASUS43 KOAX 291210
RWRNE

WEATHER ROUNDUP FOR NEBRASKA
NATIONAL WEATHER SERVICE OMAHA NE
700 AM CDT SUN MAY 29 2016

NOTES: SATELLITE DATA IS BEING USED TO AUGMENT CLOUD COVER ABOVE
       12000 FEET.
       "FAIR" INDICATES FEW OR NO CLOUDS BELOW 12,000 FEET WITH NO
       SIGNIFICANT WEATHER AND/OR OBSTRUCTIONS TO VISIBILITY.

  * THESE STATIONS DO NOT REPORT WEATHER SUCH AS RAIN...SNOW OR FOG.

NEZ001>004-019>022-054>056-291300-
NEBRASKA PANHANDLE

CITY           SKY/WX    TMP DP  RH WIND       PRES   REMARKS
SCOTTSBLUFF    CLEAR     45  42  89 N3        30.11R
6HR MIN TEMP:  43; 6HR MAX TEMP:  51;

ALLIANCE       MOCLDY    39  39 100 NW3       30.10R FOG
6HR MIN TEMP:  37; 6HR MAX TEMP:  44;

CHADRON        CLEAR     37  36  96 W5        30.10R WCI  33
6HR MIN TEMP:  36; 6HR MAX TEMP:  44;

KIMBALL        CLEAR     45  43  93 W6        30.13S
SIDNEY         CLEAR     42  40  92 S6        30.12R
6HR MIN TEMP:  40; 6HR MAX TEMP:  49;

$$

NEZ057>060-069>072-079>082-291300-
SOUTHWEST NEBRASKA

CITY           SKY/WX    TMP DP  RH WIND       PRES   REMARKS
NORTH PLATTE   CLEAR     48  47  96 CALM      30.11R
6HR MIN TEMP:  46; 6HR MAX TEMP:  52;

IMPERIAL       CLEAR     50  48  93 NW3       30.12R
6HR MIN TEMP:  48; 6HR MAX TEMP:  56;

LEXINGTON      CLEAR     53  50  91 W3        30.11R
MCCOOK         CLEAR     53  48  83 N3        30.10R
6HR MIN TEMP:  52; 6HR MAX TEMP:  61; 6HR PCP: TRACE;

OGALLALA       CLEAR     46  44  93 CALM      30.11R
$$

NEZ005>010-023>029-035>040-094-291300-
NORTH CENTRAL NEBRASKA

CITY           SKY/WX    TMP DP  RH WIND       PRES   REMARKS
VALENTINE      CLEAR     50  47  89 W5        30.09R
6HR MIN TEMP:  48; 6HR MAX TEMP:  58;

AINSWORTH      CLEAR     52  50  93 CALM      30.08R
BROKEN BOW     CLEAR     54  50  86 CALM      30.09R
6HR MIN TEMP:  51; 6HR MAX TEMP:  61;

O`NEILL        CLEAR     58  54  86 SW5       30.07R
ORD            CLEAR     53  52  96 CALM      30.07R
6HR MIN TEMP:  51; 6HR MAX TEMP:  59;

THEDFORD       PTCLDY    48  47  95 CALM      30.11R
$$

NEZ041-046>049-061>064-073>077-083>087-291300-
SOUTH CENTRAL NEBRASKA

CITY           SKY/WX    TMP DP  RH WIND       PRES   REMARKS
GRAND ISLAND   CLEAR     57  55  93 S6        30.09R
6HR MIN TEMP:  54; 6HR MAX TEMP:  64; 6HR PCP:  0.02;

AURORA         CLEAR     58  57  96 S6        30.08R
HASTINGS       CLEAR     55  52  89 W3        30.09R
6HR MIN TEMP:  53; 6HR MAX TEMP:  61;

HEBRON         CLEAR     57  55  91 CALM      30.08R
HOLDREGE       CLEAR     55  51  83 CALM      30.11R
KEARNEY *      MOCLDY    54  48  82 CALM      30.11R
YORK           PTCLDY    55  55 100 SW7       30.08R
$$

NEZ011>018-030>034-042>045-291300-
NORTHEAST NEBRASKA

CITY           SKY/WX    TMP DP  RH WIND       PRES   REMARKS
NORFOLK        CLOUDY    57  54  89 SW3       30.06R
6HR MIN TEMP:  53; 6HR MAX TEMP:  57;

ALBION         CLEAR     55  53  92 CALM      30.07R
BLAIR          CLOUDY    57  56  95 CALM      30.05S
FREMONT        CLOUDY    56  56  98 CALM      30.06R
TEKAMAH        CLOUDY    56  54  93 S3        30.05R
6HR MIN TEMP:  52; 6HR MAX TEMP:  59;

WAYNE          CLOUDY    57  56  96 SW5       30.05R
$$

NEZ050>053-065>068-078-088>093-291300-
SOUTHEAST NEBRASKA

CITY           SKY/WX    TMP DP  RH WIND       PRES   REMARKS
LINCOLN        MOCLDY    58  56  93 CALM      30.07R
6HR MIN TEMP:  55; 6HR MAX TEMP:  61;

OMAHA EPPLEY   CLOUDY    58  55  90 SE3       30.05R
6HR MIN TEMP:  56; 6HR MAX TEMP:  62;

BEATRICE       MOCLDY    59  57  92 CALM      30.07R
FALLS CITY     MOSUNNY   60  59  96 S5        30.06R
6HR MIN TEMP:  57; 6HR MAX TEMP:  64;

NEBRASKA CITY  SUNNY     58  58 100 CALM      30.07R
PLATTSMOUTH    MOSUNNY   60  58  94 CALM      30.06R
$$

NEZ044-045-051>053-067-291300-
OMAHA AREA

CITY           SKY/WX    TMP DP  RH WIND       PRES   REMARKS
OMAHA EPPLEY   CLOUDY    58  55  90 SE3       30.05R
6HR MIN TEMP:  56; 6HR MAX TEMP:  62;

BLAIR          CLOUDY    57  56  95 CALM      30.05S
FREMONT        CLOUDY    56  56  98 CALM      30.06R
MILLARD        CLOUDY    57  56  95 CALM      30.06R
OFFUTT AFB     CLOUDY    58  58 100 E1        30.05R
PLATTSMOUTH    MOSUNNY   60  58  94 CALM      30.06R
WAHOO          FAIR      56  55  94 CALM      30.07R
$$




USA.gov is the U.S. government's official web portal to all federal, state and local government web resources and services.